Overview Statistics Trail Chart Weather Telemetry Raw packets
 

This is the latest recevied weather packets stored in our database for station/object DL0BB-10. If no packets are shown the sender has not sent any weather packets the latest 10 day(s).

<< 15 16 17 18 19 20 21 >>
Time Temp. Humidity Pressure Rain* Wind** Luminosity Snow
1788344090 25° C 39% 1022.3 hPa - - - -
1788343189 25° C 38% 1022.4 hPa - - - -
1788342289 25.56° C 37% 1022.5 hPa - - - -
1788341388 24.44° C 39% 1022.4 hPa - - - -
1788340488 24.44° C 39% 1022.4 hPa - - - -
1788339587 25° C 38% 1022.4 hPa - - - -
1788338692 25° C 37% 1022.5 hPa - - - -
1788337792 24.44° C 39% 1022.5 hPa - - - -
1788336892 24.44° C 39% 1022.5 hPa - - - -
1788335991 25° C 38% 1022.2 hPa - - - -
1788335091 25° C 38% 1022.1 hPa - - - -
1788334191 23.89° C 40% 1022.3 hPa - - - -
1788333291 24.44° C 39% 1022.1 hPa - - - -
1788332391 25° C 38% 1021.9 hPa - - - -
1788331491 25° C 38% 1021.6 hPa - - - -
1788330591 23.89° C 40% 1021.7 hPa - - - -
1788329691 24.44° C 39% 1021.8 hPa - - - -
1788328790 25° C 38% 1022 hPa - - - -
1788327890 24.44° C 39% 1021.7 hPa - - - -
1788326990 24.44° C 40% 1021.7 hPa - - - -
1788326090 24.44° C 39% 1021.7 hPa - - - -
1788325189 25° C 38% 1021.7 hPa - - - -
1788324289 24.44° C 39% 1021.8 hPa - - - -
1788323389 24.44° C 39% 1021.7 hPa - - - -
1788322489 25° C 39% 1021.7 hPa - - - -

* Rain since midnight (hover to see other rain measurements)
** Current wind speed in m/s (hover to see current wind gust speed)